Time,TemperatureF,DewpointF,PressureIn,WindDirection,WindDirectionDegrees,WindSpeedMPH,WindSpeedGustMPH,Humidity,HourlyPrecipIn,Conditions,Clouds,dailyrainin,SoftwareType,DateUTC
2013-02-11 00:02:00,27.0,25.0,29.66,WNW,300,32.0,39.0,92,-99.99,,,-99.99,,2013-02-11 06:02:00,
2013-02-11 00:11:00,27.0,23.0,29.68,WNW,300,30.0,37.0,86,-99.99,,,-99.99,,2013-02-11 06:11:00,
2013-02-11 00:21:00,27.0,23.0,29.68,WNW,300,30.0,37.0,86,-99.99,,,-99.99,,2013-02-11 06:21:00,
2013-02-11 00:32:00,27.0,23.0,29.69,WNW,300,30.0,38.0,86,-99.99,,,-99.99,,2013-02-11 06:32:00,
2013-02-11 00:42:00,27.0,23.0,29.69,WNW,300,30.0,38.0,86,-99.99,,,-99.99,,2013-02-11 06:42:00,
2013-02-11 00:51:00,27.0,21.0,29.70,NW,310,24.0,36.0,79,-99.99,,,-99.99,,2013-02-11 06:51:00,
2013-02-11 01:01:00,27.0,21.0,29.70,NW,310,24.0,36.0,79,-99.99,,,-99.99,,2013-02-11 07:01:00,
2013-02-11 01:11:00,27.0,21.0,29.72,WNW,300,28.0,38.0,79,-99.99,,,-99.99,,2013-02-11 07:11:00,
2013-02-11 01:21:00,27.0,21.0,29.72,WNW,300,28.0,38.0,79,-99.99,,,-99.99,,2013-02-11 07:21:00,
2013-02-11 01:32:00,27.0,21.0,29.74,WNW,300,27.0,33.0,79,-99.99,,,-99.99,,2013-02-11 07:32:00,
2013-02-11 01:41:00,27.0,21.0,29.74,WNW,300,27.0,33.0,79,-99.99,,,-99.99,,2013-02-11 07:41:00,
2013-02-11 01:52:00,27.0,21.0,29.75,WNW,300,29.0,38.0,79,-99.99,,,-99.99,,2013-02-11 07:52:00,
2013-02-11 02:01:00,27.0,21.0,29.75,WNW,300,29.0,38.0,79,-99.99,,,-99.99,,2013-02-11 08:01:00,
2013-02-11 02:11:00,27.0,21.0,29.76,WNW,300,33.0,44.0,79,-99.99,,,-99.99,,2013-02-11 08:11:00,
2013-02-11 02:21:00,27.0,21.0,29.76,WNW,300,33.0,44.0,79,-99.99,,,-99.99,,2013-02-11 08:21:00,
2013-02-11 02:31:00,25.0,21.0,29.78,NW,310,31.0,39.0,85,-99.99,,,-99.99,,2013-02-11 08:31:00,
2013-02-11 02:42:00,25.0,21.0,29.78,NW,310,31.0,39.0,85,-99.99,,,-99.99,,2013-02-11 08:42:00,
2013-02-11 02:52:00,25.0,21.0,29.80,NW,310,28.0,36.0,85,-99.99,,,-99.99,,2013-02-11 08:52:00,
2013-02-11 03:01:00,25.0,21.0,29.80,NW,310,28.0,36.0,85,-99.99,,,-99.99,,2013-02-11 09:01:00,
2013-02-11 03:12:00,25.0,21.0,29.81,WNW,300,28.0,36.0,85,-99.99,,,-99.99,,2013-02-11 09:12:00,
2013-02-11 03:21:00,25.0,21.0,29.81,WNW,300,28.0,36.0,85,-99.99,,,-99.99,,2013-02-11 09:21:00,
2013-02-11 03:32:00,25.0,21.0,29.83,WNW,300,22.0,29.0,85,-99.99,,,-99.99,,2013-02-11 09:32:00,
2013-02-11 03:41:00,25.0,21.0,29.83,WNW,300,22.0,29.0,85,-99.99,,,-99.99,,2013-02-11 09:41:00,
2013-02-11 03:51:00,25.0,19.0,29.84,WNW,300,27.0,37.0,79,-99.99,,,-99.99,,2013-02-11 09:51:00,
2013-02-11 04:01:00,25.0,19.0,29.84,WNW,300,27.0,37.0,79,-99.99,,,-99.99,,2013-02-11 10:01:00,
2013-02-11 04:11:00,25.0,19.0,29.84,WNW,300,25.0,37.0,79,-99.99,,,-99.99,,2013-02-11 10:11:00,
2013-02-11 04:21:00,25.0,19.0,29.84,WNW,300,25.0,37.0,79,-99.99,,,-99.99,,2013-02-11 10:21:00,
2013-02-11 04:31:00,25.0,19.0,29.86,WNW,300,22.0,30.0,79,-99.99,,,-99.99,,2013-02-11 10:31:00,
2013-02-11 04:42:00,25.0,19.0,29.86,WNW,300,22.0,30.0,79,-99.99,,,-99.99,,2013-02-11 10:42:00,
2013-02-11 04:51:00,23.0,18.0,29.87,WNW,300,24.0,32.0,79,-99.99,,,-99.99,,2013-02-11 10:51:00,
2013-02-11 05:01:00,23.0,18.0,29.87,WNW,300,24.0,32.0,79,-99.99,,,-99.99,,2013-02-11 11:01:00,
2013-02-11 05:11:00,23.0,18.0,29.89,NW,310,28.0,32.0,79,-99.99,,,-99.99,,2013-02-11 11:11:00,
2013-02-11 05:22:00,23.0,18.0,29.89,NW,310,28.0,32.0,79,-99.99,,,-99.99,,2013-02-11 11:22:00,
2013-02-11 05:32:00,25.0,19.0,29.89,WNW,300,27.0,35.0,79,-99.99,,,-99.99,,2013-02-11 11:32:00,
2013-02-11 05:42:00,25.0,19.0,29.89,WNW,300,27.0,35.0,79,-99.99,,,-99.99,,2013-02-11 11:42:00,
2013-02-11 05:52:00,23.0,18.0,29.91,WNW,290,22.0,32.0,79,-99.99,,,-99.99,,2013-02-11 11:52:00,
2013-02-11 06:03:00,23.0,18.0,29.91,WNW,290,22.0,32.0,79,-99.99,,,-99.99,,2013-02-11 12:03:00,
2013-02-11 06:12:00,23.0,18.0,29.91,WNW,290,22.0,32.0,79,-99.99,,,-99.99,,2013-02-11 12:12:00,
2013-02-11 06:22:00,23.0,18.0,29.91,WNW,290,22.0,32.0,79,-99.99,,,-99.99,,2013-02-11 12:22:00,
2013-02-11 06:32:00,23.0,18.0,29.93,WNW,300,23.0,31.0,79,-99.99,,,-99.99,,2013-02-11 12:32:00,
2013-02-11 06:42:00,23.0,18.0,29.93,WNW,300,23.0,31.0,79,-99.99,,,-99.99,,2013-02-11 12:42:00,
2013-02-11 06:52:00,23.0,18.0,29.94,WNW,300,28.0,33.0,79,-99.99,,,-99.99,,2013-02-11 12:52:00,
2013-02-11 07:02:00,23.0,18.0,29.94,WNW,300,28.0,33.0,79,-99.99,,,-99.99,,2013-02-11 13:02:00,
2013-02-11 07:11:00,23.0,18.0,29.94,WNW,300,25.0,38.0,79,-99.99,,,-99.99,,2013-02-11 13:11:00,
2013-02-11 07:22:00,23.0,18.0,29.94,WNW,300,25.0,38.0,79,-99.99,,,-99.99,,2013-02-11 13:22:00,
2013-02-11 07:32:00,23.0,18.0,29.95,WNW,300,29.0,35.0,79,-99.99,,,-99.99,,2013-02-11 13:32:00,
2013-02-11 07:42:00,23.0,18.0,29.95,WNW,300,29.0,35.0,79,-99.99,,,-99.99,,2013-02-11 13:42:00,
2013-02-11 07:52:00,23.0,18.0,29.97,WNW,300,22.0,32.0,79,-99.99,,,-99.99,,2013-02-11 13:52:00,
2013-02-11 08:02:00,23.0,18.0,29.97,WNW,300,22.0,32.0,79,-99.99,,,-99.99,,2013-02-11 14:02:00,
2013-02-11 08:11:00,23.0,18.0,29.97,WNW,300,22.0,32.0,79,-99.99,,,-99.99,,2013-02-11 14:11:00,
2013-02-11 08:22:00,23.0,18.0,29.97,WNW,300,22.0,32.0,79,-99.99,,,-99.99,,2013-02-11 14:22:00,
2013-02-11 08:32:00,23.0,18.0,29.99,WNW,300,21.0,29.0,79,-99.99,,,-99.99,,2013-02-11 14:32:00,
2013-02-11 08:42:00,23.0,18.0,29.99,WNW,300,21.0,29.0,79,-99.99,,,-99.99,,2013-02-11 14:42:00,
2013-02-11 08:53:00,23.0,18.0,30.00,NW,310,23.0,-999.0,79,-99.99,,,-99.99,,2013-02-11 14:53:00,
2013-02-11 09:02:00,23.0,18.0,30.00,NW,310,23.0,-999.0,79,-99.99,,,-99.99,,2013-02-11 15:02:00,
2013-02-11 09:11:00,25.0,19.0,30.00,NW,310,18.0,27.0,79,-99.99,,,-99.99,,2013-02-11 15:11:00,
2013-02-11 09:22:00,25.0,19.0,30.00,NW,310,18.0,27.0,79,-99.99,,,-99.99,,2013-02-11 15:22:00,
2013-02-11 09:32:00,25.0,19.0,30.01,NW,310,21.0,30.0,79,-99.99,,,-99.99,,2013-02-11 15:32:00,
2013-02-11 09:42:00,25.0,19.0,30.01,NW,310,21.0,30.0,79,-99.99,,,-99.99,,2013-02-11 15:42:00,
2013-02-11 09:52:00,25.0,19.0,30.01,NW,310,22.0,27.0,79,-99.99,,,-99.99,,2013-02-11 15:52:00,
2013-02-11 10:02:00,25.0,19.0,30.01,NW,310,22.0,27.0,79,-99.99,,,-99.99,,2013-02-11 16:02:00,
2013-02-11 10:11:00,25.0,19.0,30.03,WNW,300,22.0,28.0,79,-99.99,,,-99.99,,2013-02-11 16:11:00,
2013-02-11 10:22:00,25.0,19.0,30.03,WNW,300,22.0,28.0,79,-99.99,,,-99.99,,2013-02-11 16:22:00,
2013-02-11 10:32:00,25.0,18.0,30.04,NW,310,22.0,28.0,73,-99.99,,,-99.99,,2013-02-11 16:32:00,
2013-02-11 10:42:00,25.0,18.0,30.04,NW,310,22.0,28.0,73,-99.99,,,-99.99,,2013-02-11 16:42:00,
2013-02-11 10:52:00,25.0,19.0,30.05,WNW,300,18.0,29.0,79,-99.99,,,-99.99,,2013-02-11 16:52:00,
2013-02-11 11:02:00,25.0,19.0,30.05,WNW,300,18.0,29.0,79,-99.99,,,-99.99,,2013-02-11 17:02:00,
2013-02-11 11:11:00,25.0,19.0,30.05,WNW,300,22.0,-999.0,79,-99.99,,,-99.99,,2013-02-11 17:11:00,
2013-02-11 11:22:00,25.0,19.0,30.05,WNW,300,22.0,-999.0,79,-99.99,,,-99.99,,2013-02-11 17:22:00,
2013-02-11 11:32:00,25.0,19.0,30.06,WNW,290,21.0,30.0,79,-99.99,,,-99.99,,2013-02-11 17:32:00,
2013-02-11 11:42:00,25.0,19.0,30.06,WNW,290,21.0,30.0,79,-99.99,,,-99.99,,2013-02-11 17:42:00,
2013-02-11 11:52:00,25.0,19.0,30.06,WNW,300,29.0,35.0,79,-99.99,,,-99.99,,2013-02-11 17:52:00,
2013-02-11 12:02:00,25.0,19.0,30.06,WNW,300,29.0,35.0,79,-99.99,,,-99.99,,2013-02-11 18:02:00,
2013-02-11 12:11:00,25.0,19.0,30.07,NW,310,24.0,30.0,79,-99.99,,,-99.99,,2013-02-11 18:11:00,
2013-02-11 12:21:00,25.0,19.0,30.07,NW,310,24.0,30.0,79,-99.99,,,-99.99,,2013-02-11 18:21:00,
2013-02-11 12:32:00,25.0,19.0,30.07,WNW,300,18.0,25.0,79,-99.99,,,-99.99,,2013-02-11 18:32:00,
2013-02-11 12:42:00,25.0,19.0,30.07,WNW,300,18.0,25.0,79,-99.99,,,-99.99,,2013-02-11 18:42:00,
2013-02-11 12:52:00,25.0,19.0,30.06,NW,310,21.0,25.0,79,-99.99,,,-99.99,,2013-02-11 18:52:00,
2013-02-11 13:02:00,25.0,19.0,30.06,NW,310,21.0,25.0,79,-99.99,,,-99.99,,2013-02-11 19:02:00,
2013-02-11 13:11:00,25.0,18.0,30.06,NW,310,22.0,-999.0,73,-99.99,,,-99.99,,2013-02-11 19:11:00,
2013-02-11 13:21:00,25.0,18.0,30.06,NW,310,22.0,-999.0,73,-99.99,,,-99.99,,2013-02-11 19:21:00,
2013-02-11 13:32:00,25.0,19.0,30.07,WNW,300,20.0,24.0,79,-99.99,,,-99.99,,2013-02-11 19:32:00,
2013-02-11 13:42:00,25.0,19.0,30.07,WNW,300,20.0,24.0,79,-99.99,,,-99.99,,2013-02-11 19:42:00,
2013-02-11 13:51:00,25.0,19.0,30.07,WNW,300,18.0,24.0,79,-99.99,,,-99.99,,2013-02-11 19:51:00,
2013-02-11 14:01:00,25.0,19.0,30.07,WNW,300,18.0,24.0,79,-99.99,,,-99.99,,2013-02-11 20:01:00,
2013-02-11 14:11:00,25.0,19.0,30.07,NW,310,21.0,-999.0,79,-99.99,,,-99.99,,2013-02-11 20:11:00,
2013-02-11 14:21:00,25.0,19.0,30.07,NW,310,21.0,-999.0,79,-99.99,,,-99.99,,2013-02-11 20:21:00,
2013-02-11 14:32:00,25.0,19.0,30.08,WNW,300,16.0,22.0,79,-99.99,,,-99.99,,2013-02-11 20:32:00,
2013-02-11 14:42:00,25.0,19.0,30.08,WNW,300,16.0,22.0,79,-99.99,,,-99.99,,2013-02-11 20:42:00,
2013-02-11 14:52:00,25.0,19.0,30.08,WNW,300,18.0,24.0,79,-99.99,,,-99.99,,2013-02-11 20:52:00,
2013-02-11 15:02:00,25.0,19.0,30.08,WNW,300,18.0,24.0,79,-99.99,,,-99.99,,2013-02-11 21:02:00,
2013-02-11 15:11:00,25.0,19.0,30.08,NW,310,16.0,24.0,79,-99.99,,,-99.99,,2013-02-11 21:11:00,
2013-02-11 15:22:00,25.0,19.0,30.08,NW,310,16.0,24.0,79,-99.99,,,-99.99,,2013-02-11 21:22:00,
2013-02-11 15:32:00,25.0,19.0,30.08,NW,310,17.0,24.0,79,-99.99,,,-99.99,,2013-02-11 21:32:00,
2013-02-11 15:42:00,25.0,19.0,30.08,NW,310,17.0,24.0,79,-99.99,,,-99.99,,2013-02-11 21:42:00,
2013-02-11 15:51:00,25.0,19.0,30.08,NW,310,13.0,20.0,79,-99.99,,,-99.99,,2013-02-11 21:51:00,
2013-02-11 16:02:00,25.0,19.0,30.08,NW,310,13.0,20.0,79,-99.99,,,-99.99,,2013-02-11 22:02:00,
2013-02-11 16:11:00,25.0,19.0,30.08,NW,310,16.0,22.0,79,-99.99,,,-99.99,,2013-02-11 22:11:00,
2013-02-11 16:22:00,25.0,19.0,30.08,NW,310,16.0,22.0,79,-99.99,,,-99.99,,2013-02-11 22:22:00,
2013-02-11 16:32:00,25.0,18.0,30.09,WNW,300,17.0,22.0,73,-99.99,,,-99.99,,2013-02-11 22:32:00,
2013-02-11 16:42:00,25.0,18.0,30.09,WNW,300,17.0,22.0,73,-99.99,,,-99.99,,2013-02-11 22:42:00,
2013-02-11 16:52:00,25.0,19.0,30.09,NW,310,13.0,17.0,79,-99.99,,,-99.99,,2013-02-11 22:52:00,
2013-02-11 17:02:00,25.0,19.0,30.09,NW,310,13.0,17.0,79,-99.99,,,-99.99,,2013-02-11 23:02:00,
2013-02-11 17:11:00,25.0,19.0,30.09,NW,310,13.0,17.0,79,-99.99,,,-99.99,,2013-02-11 23:11:00,
2013-02-11 17:21:00,25.0,19.0,30.09,NW,310,13.0,17.0,79,-99.99,,,-99.99,,2013-02-11 23:21:00,
2013-02-11 17:32:00,25.0,19.0,30.10,WNW,300,13.0,18.0,79,-99.99,,,-99.99,,2013-02-11 23:32:00,
2013-02-11 17:42:00,25.0,19.0,30.10,WNW,300,13.0,18.0,79,-99.99,,,-99.99,,2013-02-11 23:42:00,
2013-02-11 17:52:00,25.0,18.0,30.09,WNW,300,16.0,-999.0,73,-99.99,,,-99.99,,2013-02-11 23:52:00,
2013-02-11 18:02:00,25.0,18.0,30.09,WNW,300,16.0,-999.0,73,-99.99,,,-99.99,,2013-02-12 00:02:00,
2013-02-11 18:11:00,25.0,19.0,30.09,WNW,290,15.0,-999.0,79,-99.99,,,-99.99,,2013-02-12 00:11:00,
2013-02-11 18:22:00,25.0,19.0,30.09,WNW,290,15.0,-999.0,79,-99.99,,,-99.99,,2013-02-12 00:22:00,
2013-02-11 18:32:00,25.0,19.0,30.09,WNW,300,13.0,-999.0,79,-99.99,,,-99.99,,2013-02-12 00:32:00,
2013-02-11 18:42:00,25.0,19.0,30.09,WNW,300,13.0,-999.0,79,-99.99,,,-99.99,,2013-02-12 00:42:00,
2013-02-11 18:52:00,25.0,19.0,30.09,WNW,300,9.0,-999.0,79,-99.99,,,-99.99,,2013-02-12 00:52:00,
2013-02-11 19:02:00,25.0,19.0,30.09,WNW,300,9.0,-999.0,79,-99.99,,,-99.99,,2013-02-12 01:02:00,
2013-02-11 19:11:00,25.0,19.0,30.09,WNW,300,9.0,-999.0,79,-99.99,,,-99.99,,2013-02-12 01:11:00,
2013-02-11 19:22:00,25.0,19.0,30.09,WNW,300,9.0,-999.0,79,-99.99,,,-99.99,,2013-02-12 01:22:00,
2013-02-11 19:32:00,25.0,19.0,30.10,West,270,8.0,-999.0,79,-99.99,,,-99.99,,2013-02-12 01:32:00,
2013-02-11 19:42:00,25.0,19.0,30.10,West,270,8.0,-999.0,79,-99.99,,,-99.99,,2013-02-12 01:42:00,
2013-02-11 19:52:00,25.0,19.0,30.09,West,280,7.0,-999.0,79,-99.99,,,-99.99,,2013-02-12 01:52:00,
2013-02-11 20:01:00,25.0,19.0,30.09,West,280,7.0,-999.0,79,-99.99,,,-99.99,,2013-02-12 02:01:00,
2013-02-11 20:12:00,25.0,19.0,30.09,West,280,6.0,-999.0,79,-99.99,,,-99.99,,2013-02-12 02:12:00,
2013-02-11 20:22:00,25.0,19.0,30.09,West,280,6.0,-999.0,79,-99.99,,,-99.99,,2013-02-12 02:22:00,
2013-02-11 20:31:00,25.0,19.0,30.09,WNW,290,5.0,-999.0,79,-99.99,,,-99.99,,2013-02-12 02:31:00,
2013-02-11 20:41:00,25.0,19.0,30.09,WNW,290,5.0,-999.0,79,-99.99,,,-99.99,,2013-02-12 02:41:00,
2013-02-11 20:52:00,25.0,19.0,30.09,North,0,0.0,-999.0,79,-99.99,,,-99.99,,2013-02-12 02:52:00,
2013-02-11 21:02:00,25.0,19.0,30.09,North,0,0.0,-999.0,79,-99.99,,,-99.99,,2013-02-12 03:02:00,
2013-02-11 21:11:00,25.0,19.0,30.09,North,0,0.0,-999.0,79,-99.99,,,-99.99,,2013-02-12 03:11:00,
2013-02-11 21:21:00,25.0,19.0,30.09,North,0,0.0,-999.0,79,-99.99,,,-99.99,,2013-02-12 03:21:00,
2013-02-11 21:31:00,25.0,19.0,30.09,North,0,0.0,-999.0,79,-99.99,,,-99.99,,2013-02-12 03:31:00,
2013-02-11 21:42:00,25.0,19.0,30.09,North,0,0.0,-999.0,79,-99.99,,,-99.99,,2013-02-12 03:42:00,
2013-02-11 21:51:00,25.0,21.0,30.09,North,0,0.0,-999.0,85,-99.99,,,-99.99,,2013-02-12 03:51:00,
2013-02-11 22:01:00,25.0,21.0,30.09,North,0,0.0,-999.0,85,-99.99,,,-99.99,,2013-02-12 04:01:00,
2013-02-11 22:11:00,25.0,21.0,30.09,North,0,0.0,-999.0,85,-99.99,,,-99.99,,2013-02-12 04:11:00,
2013-02-11 22:21:00,25.0,21.0,30.09,North,0,0.0,-999.0,85,-99.99,,,-99.99,,2013-02-12 04:21:00,
2013-02-11 22:31:00,25.0,21.0,30.09,WSW,240,5.0,-999.0,85,-99.99,,,-99.99,,2013-02-12 04:31:00,
2013-02-11 22:41:00,25.0,21.0,30.09,WSW,240,5.0,-999.0,85,-99.99,,,-99.99,,2013-02-12 04:41:00,
2013-02-11 22:51:00,25.0,21.0,30.09,SW,230,6.0,-999.0,85,-99.99,,,-99.99,,2013-02-12 04:51:00,
2013-02-11 23:01:00,25.0,21.0,30.09,SW,230,6.0,-999.0,85,-99.99,,,-99.99,,2013-02-12 05:01:00,
2013-02-11 23:11:00,25.0,19.0,30.09,WSW,240,6.0,-999.0,79,-99.99,,,-99.99,,2013-02-12 05:11:00,
2013-02-11 23:21:00,25.0,19.0,30.09,WSW,240,6.0,-999.0,79,-99.99,,,-99.99,,2013-02-12 05:21:00,
2013-02-11 23:31:00,25.0,19.0,30.09,WSW,250,8.0,-999.0,79,-99.99,,,-99.99,,2013-02-12 05:31:00,
2013-02-11 23:42:00,25.0,19.0,30.09,WSW,250,8.0,-999.0,79,-99.99,,,-99.99,,2013-02-12 05:42:00,
2013-02-11 23:52:00,25.0,21.0,30.09,WSW,240,6.0,-999.0,85,-99.99,,,-99.99,,2013-02-12 05:52:00,